Printer-friendly version

IAU Minor Planet Center

Minor Planet Center

MPEC 2007-R48 : 2007 RS9

The following Minor Planet Electronic Circular may be linked-to from your own Web pages, but must not otherwise be redistributed electronically.


Read MPEC 2007-R47 Read MPEC 2007-R49


M.P.E.C. 2007-R48                                Issued 2007 Sept. 11, 15:59 UT

     The Minor Planet Electronic Circulars contain information on unusual
         minor planets and routine data on comets.  They are published
   on behalf of Commission 20 of the International Astronomical Union by the
          Minor Planet Center, Smithsonian Astrophysical Observatory,
                          Cambridge, MA 02138, U.S.A.

             Prepared using the Tamkin Foundation Computer Network

                              MPC@CFA.HARVARD.EDU
          URL http://www.cfa.harvard.edu/iau/mpc.html  ISSN 1523-6714

                                   2007 RS9

Observations:
     K07R09S* C2007 09 10.25861 22 41 01.24 -06 32 28.0          21.0 V ER048G96
     K07R09S  C2007 09 10.26604 22 41 04.45 -06 33 10.0          20.6 V ER048G96
     K07R09S  C2007 09 10.27353 22 41 07.65 -06 33 51.8          20.5 V ER048G96
     K07R09S  C2007 09 10.28095 22 41 10.86 -06 34 32.9          21.5 V ER048G96
     K07R09S  C2007 09 10.31335 22 41 24.78 -06 37 34.3                 ER048G96
     K07R09S  C2007 09 10.31525 22 41 25.57 -06 37 43.9          19.4 V ER048G96
     K07R09S  C2007 09 10.31720 22 41 26.40 -06 37 55.0          19.1 V ER048G96
     K07R09S  C2007 09 10.31914 22 41 27.26 -06 38 05.7          21.1 V ER048G96
     K07R09S  C2007 09 11.27581 22 48 38.45 -08 03 51.1          20.6 V ER048G96
     K07R09S  C2007 09 11.28267 22 48 41.26 -08 04 26.6          20.7 V ER048G96
     K07R09S  C2007 09 11.28957 22 48 44.03 -08 05 02.5          20.8 V ER048G96
     K07R09S  C2007 09 11.29649 22 48 46.81 -08 05 38.5          20.8 V ER048G96

Observer details:
G96 Mt. Lemmon Survey.  Observers R. A. Kowalski, E. C. Beshore.  Measurers
    E. C. Beshore, A. Boattini, G. J. Garradd, A. R. Gibbs, A. D. Grauer,
    R. E. Hill, R. A. Kowalski, S. M. Larson, R. H. McNaught.  1.5-m reflector
    + CCD.

Orbital elements:
2007 RS9                                                 Earth MOID = 0.0748 AU
Epoch 2007 Oct. 27.0 TT = JDT 2454400.5                 MPC
M  33.00221              (2000.0)            P               Q
n   0.42686952     Peri.  147.23213     +0.70182213     +0.71119339
a   1.7469184      Node   167.17830     -0.68662367     +0.69055862
e   0.3971153      Incl.   10.54587     -0.18971989     +0.13165392
P   2.31           H   24.9           G   0.15           U   8
Residuals in seconds of arc
070910 G96  0.1-  0.2+    070910 G96  0.2+  0.6-    070911 G96  0.2-  0.0
070910 G96  0.1+  0.2-    070910 G96  0.1-  0.3+    070911 G96  0.3+  0.1+
070910 G96  0.2-  0.1-    070910 G96  0.2-  0.1+    070911 G96  0.0   0.0
070910 G96  0.1+  0.2+    070910 G96  0.2+  0.2+    070911 G96  0.2-  0.2-

Ephemeris:
2007 RS9                 a,e,i = 1.75, 0.40, 11                  q = 1.0532
Date    TT    R. A. (2000) Decl.     Delta      r     Elong.  Phase     V
2007 09 07    22 13.44   -00 52.6    0.0854   1.091   167.0    12.0    20.5
2007 09 08    22 22.41   -02 43.9    0.0879   1.094   169.1    10.1    20.5
2007 09 09    22 30.93   -04 28.8    0.0906   1.097   170.7     8.5    20.5
2007 09 10    22 38.99   -06 07.1    0.0936   1.100   171.9     7.4    20.5
2007 09 11    22 46.61   -07 38.7    0.0967   1.103   172.4     7.0    20.6
2007 09 12    22 53.79   -09 03.7    0.100    1.106   172.3     7.0    20.6
2007 09 13    23 00.56   -10 22.4    0.104    1.109   171.7     7.5    20.7
2007 09 14    23 06.94   -11 34.9    0.107    1.112   170.8     8.3    20.9
2007 09 15    23 12.93   -12 41.5    0.111    1.116   169.8     9.2    21.0
2007 09 16    23 18.57   -13 42.7    0.116    1.119   168.6    10.2    21.1
2007 09 17    23 23.87   -14 38.7    0.120    1.123   167.5    11.2    21.2
2007 09 18    23 28.85   -15 29.9    0.124    1.126   166.4    12.2    21.4
2007 09 19    23 33.53   -16 16.6    0.129    1.130   165.3    13.1    21.5
2007 09 20    23 37.94   -16 59.2    0.133    1.133   164.2    14.0    21.6
2007 09 21    23 42.08   -17 37.9    0.138    1.137   163.2    14.8    21.7
2007 09 22    23 45.97   -18 13.1    0.143    1.141   162.2    15.6    21.8
2007 09 23    23 49.64   -18 44.9    0.148    1.145   161.3    16.3    21.9
2007 09 24    23 53.09   -19 13.8    0.153    1.149   160.5    17.0    22.0
2007 09 25    23 56.34   -19 39.8    0.158    1.153   159.6    17.6    22.1
2007 09 26    23 59.41   -20 03.3    0.164    1.157   158.9    18.2    22.2
2007 09 27    00 02.30   -20 24.3    0.169    1.161   158.1    18.8    22.3

Timothy B. Spahr             (C) Copyright 2007 MPC           M.P.E.C. 2007-R48

Read MPEC 2007-R47 Read MPEC 2007-R49


Our Web policy. Index to the CBAT/MPC/ICQ pages.


Valid HTML 4.01!